Лёнинген

Германия     52°44′13″N   7°45′24″E
темп.,
°C
ветер,
м/с
пор.,
м/с
влажн.,
%
обл.,
%
осадки,
мм/ч
давл.,
гПа
погр.,
м
17 апреля, сб
сб1723:00+4ссв4976100 0.0 1028239
02:00+3с368458 0.0 1027122
05:00+2с349141 0.0 102766
08:00+3с36825 0.0 1026165
11:00+9с565591 0.0 1026871
14:00+12ссв564814 0.0 10241347
17:00+12ссв55525 0.0 10231200
20:00+8с36735 0.0 1023131
18 апреля, вс
вс1823:00+5с368480 0.0 1024126
02:00+7ссв2484100 0.0 1023103
05:00+7ссв3684100 0.0 1022177
08:00+7ссв258478 0.0 1023196
11:00+8св348198 0.0 1023352
14:00+12св4468100 0.1 10221193
17:00+14ссв2360100 0.1 10211233
20:00+11ссв5881100 0.3 1022332
19 апреля, пн
пн1923:00+7ссв379592 0.0 1022134
02:00+6ссв369780 0.0 1021144
05:00+7ссв2598100 1.1 1020158
08:00+7ссв3696100 3.9 1020417
11:00+8в4797100 0.1 1020400
14:00+12вюв467262 0.4 10201050
17:00+15вюв465821 0.4 10181461
20:00+11всв368010 0.6 1018110
20 апреля, вт
вт2023:00+8всв33885 0.0 101935
02:00+7всв22925 0.0 101830
05:00+6всв22945 0.0 101820
08:00+8всв229078 0.0 1018102
11:00+11всв238399 0.0 1018352
14:00+14всв34648 0.8 1017953
17:00+16св334815 0.1 10161671
20:00+11ссв48741 0.1 1017170
21 апреля, ср
ср2123:00+7св36805 0.0 101895
02:00+6св22865 0.0 101822
05:00+5с2285100 0.0 101814
08:00+7ссз368276 0.0 1019195
11:00+10с6679100 0.1 1021833
14:00+11ссз565441 0.1 10211452
17:00+11ссз66505 0.0 10221432
20:00+7ссз586728 0.0 1023429